Birmingham, AL

7:49 AM CST on December 16, 2017 (GMT -0600)
Birmingham International

Weather History for KBHM - October, 2010

Change the Weather History Date:

Sunday, October 24, 2010

  Actual Average Record
Temperature  
Mean Temperature 71 °F 62 °F  
Max Temperature 85 °F 73 °F 86 °F (1927)
Min Temperature 57 °F 50 °F 30 °F (1937)
Degree Days  
Heating Degree Days 0 5  
Month to date heating degree days 45 74  
Since 1 July heating degree days 45 83  
Cooling Degree Days 6 2  
Month to date cooling degree days 56 78  
Year to date cooling degree days 2550 2028  
Growing Degree Days 20 (Base 50)    
Moisture  
Dew Point 56 °F    
Average Humidity 54    
Maximum Humidity 68    
Minimum Humidity 40    
Precipitation  
Precipitation 0.33 in 0.11 in 2.26 in (1918)
Month to date precipitation 0.38 2.64  
Year to date precipitation 38.38 43.62  
Snow  
Snow 0.00 in 0.00 in - ()
Month to date snowfall 0.0 0.0  
Since 1 July snowfall 0.0 0.0  
Since 1 September snowfall 0.0 0.0  
Snow Depth 0.00 in    
Sea Level Pressure  
Sea Level Pressure 30.04 in    
Wind  
Wind Speed 8 mph (SSE)    
Max Wind Speed 29 mph    
Max Gust Speed 46 mph    
Visibility 10 miles    
Events Rain , Thunderstorm    
T = Trace of Precipitation, MM = Missing Value Source: NWS Daily Summary

Daily Weather History Graph

Daily Weather History Graph

Search for Another Location

Airport or City:

Trip Planner

Search our weather history database for the weather conditions in past years. The results will help you decide how hot, cold, wet, or windy it might be!

Date:

Astronomy

Oct. 24, 2010 Rise Set
Actual Time 6:58 AM CDT 6:02 PM CDT
Civil Twilight 6:33 AM CDT 6:28 PM CDT
Nautical Twilight 6:04 AM CDT 6:57 PM CDT
Astronomical Twilight 5:35 AM CDT 7:26 PM CDT
Moon 6:53 PM CDT (10/24) 8:31 AM CDT (10/24)
Length of Visible Light 11h 54m
Length of Day
11h 03m
Full, 97% of the Moon is Illuminated
Oct 24
Full
Oct 30
Last Quarter
Nov 5
New
Nov 13
First Quarter
Nov 21
Full

Hourly Weather History & Observations

Time (CDT) Temp. Heat Index Dew Point Humidity Pressure Visibility Wind Dir Wind Speed Gust Speed Precip Events Conditions
12:53 AM 66.0 °F - 44.1 °F 45% 30.17 in 10.0 mi SE 5.8 mph - N/A   Clear
1:53 AM 64.9 °F - 45.0 °F 48% 30.16 in 10.0 mi SE 5.8 mph - N/A   Clear
2:53 AM 64.0 °F - 45.0 °F 50% 30.15 in 10.0 mi SE 4.6 mph - N/A   Clear
3:53 AM 61.0 °F - 46.0 °F 58% 30.15 in 10.0 mi Calm Calm - N/A   Clear
4:53 AM 59.0 °F - 46.0 °F 62% 30.13 in 10.0 mi NE 3.5 mph - N/A   Clear
5:53 AM 62.1 °F - 46.0 °F 56% 30.14 in 10.0 mi ESE 4.6 mph - N/A   Clear
6:53 AM 62.1 °F - 46.9 °F 58% 30.13 in 10.0 mi East 5.8 mph - N/A   Clear
7:53 AM 63.0 °F - 48.9 °F 60% 30.15 in 10.0 mi Variable 3.5 mph - N/A   Clear
8:53 AM 68.0 °F - 57.0 °F 68% 30.16 in 10.0 mi SE 9.2 mph - N/A   Clear
9:53 AM 72.0 °F - 57.9 °F 61% 30.15 in 10.0 mi South 11.5 mph 17.3 mph N/A   Clear
10:53 AM 75.9 °F - 57.0 °F 52% 30.12 in 10.0 mi SE 11.5 mph 18.4 mph N/A   Clear
11:53 AM 80.1 °F 80.4 °F 57.0 °F 45% 30.10 in 10.0 mi SSE 11.5 mph 21.9 mph N/A   Partly Cloudy
12:53 PM 82.0 °F 81.6 °F 55.9 °F 41% 30.07 in 10.0 mi South 8.1 mph 18.4 mph N/A   Scattered Clouds
1:53 PM 82.9 °F 82.0 °F 55.0 °F 38% 30.03 in 10.0 mi South 8.1 mph 18.4 mph N/A   Partly Cloudy
2:53 PM 82.9 °F 82.0 °F 55.0 °F 38% 30.00 in 10.0 mi SSE 9.2 mph - N/A   Mostly Cloudy
3:53 PM 82.0 °F 81.4 °F 55.0 °F 39% 29.99 in 10.0 mi South 11.5 mph - N/A   Mostly Cloudy
4:53 PM 82.0 °F 81.7 °F 57.0 °F 42% 29.96 in 10.0 mi South 8.1 mph - N/A   Scattered Clouds
5:53 PM 81.0 °F 81.0 °F 57.0 °F 44% 29.95 in 10.0 mi South 8.1 mph - N/A   Overcast
6:53 PM 79.0 °F - 57.9 °F 48% 29.95 in 10.0 mi SSE 6.9 mph - N/A   Mostly Cloudy
7:53 PM 75.0 °F - 60.1 °F 60% 29.95 in 10.0 mi SE 4.6 mph - 0.01 in   Mostly Cloudy
8:15 PM 75.2 °F - 60.8 °F 61% 29.96 in 10.0 mi SSE 5.8 mph - N/A Thunderstorm Thunderstorm
8:53 PM 73.9 °F - 61.0 °F 64% 29.95 in 10.0 mi South 10.4 mph - 0.00 in   Mostly Cloudy
9:53 PM 70.0 °F - 64.0 °F 81% 29.93 in 10.0 mi SSE 9.2 mph - 0.00 in Rain Light Rain
10:53 PM 70.0 °F - 66.0 °F 87% 29.93 in 10.0 mi South 11.5 mph 16.1 mph 0.01 in   Overcast
10:57 PM 69.8 °F - 66.2 °F 88% 29.95 in 10.0 mi South 12.7 mph 16.1 mph N/A Thunderstorm Thunderstorm
11:01 PM 69.8 °F - 64.4 °F 83% 29.94 in 1.2 mi SSE 25.3 mph 46.0 mph N/A Rain , Thunderstorm Light Thunderstorms and Rain
11:12 PM 69.8 °F - 66.2 °F 88% 29.95 in 3.0 mi SSE 13.8 mph 35.7 mph 0.29 in Rain , Thunderstorm Light Thunderstorms and Rain
11:49 PM 71.6 °F - 69.8 °F 94% 29.93 in 10.0 mi South 12.7 mph 20.7 mph N/A   Overcast
11:53 PM 71.1 °F - 69.1 °F 93% 29.90 in 10.0 mi South 11.5 mph 20.7 mph 0.31 in Thunderstorm Thunderstorm